Temp
20 19 19 18 18 18 19 19 19 19 20 20 20 21 20 19 19 18 18 19 18 18 18 18 18 19 19 18 17 17 18 18 17 17 17 17 17 18 17 17 18 17 17 17 18 17 17 17 17
19 19 18 18 18 19 19 19 20 20 22 22 21 21 20 17 17 17 18 18 18 19 18 18 19 18 18 18 18 17 17 17 17 17 17 18 18 18 18 18 17 17 17 17 17 17 18 17 17
19 18 18 18 17 19 19 18 19 20 22 21 20 20 19 16 17 17 19 18 18 18 18 19 18 18 17 18 17 17 17 17 17 17 17 18 18 18 18 17 18 17 17 17 17 17 17 17 17
19 18 18 18 18 19 19 19 19 20 22 21 20 18 17 17 18 19 19 19 18 18 19 18 18 18 18 17 17 17 17 17 17 17 17 18 18 18 18 18 17 17 17 17 17 17 17 17 17
18 18 18 19 18 19 18 18 18 18 21 21 20 18 17 17 18 19 19 19 19 19 18 18 18 18 18 17 17 17 17 17 17 17 17 17 18 17 18 17 17 17 17 17 17 18 18 17 17
18 18 19 19 20 19 18 18 18 18 20 19 18 18 16 18 19 19 19 19 19 19 18 17 17 17 17 17 17 17 17 17 17 17 17 17 17 18 18 17 17 18 18 18 18 17 17 17 17
18 19 20 20 19 19 19 18 18 20 20 19 19 17 16 17 18 19 19 19 19 19 19 17 17 17 17 17 17 17 17 17 17 17 17 17 17 18 17 17 17 18 18 18 18 17 17 17 17
19 19 20 20 20 19 18 19 21 21 20 19 19 17 16 17 18 18 18 19 19 19 18 18 18 18 18 17 17 17 17 17 17 17 17 17 17 18 18 18 17 18 18 17 17 17 17 17 17
19 19 20 20 20 20 19 20 21 20 20 21 19 18 17 18 18 18 18 19 19 18 18 18 18 18 18 18 17 17 17 17 17 17 17 18 17 17 17 17 18 18 18 17 17 17 17 17 17
19 17 20 22 21 20 20 21 21 20 20 18 17 18 18 19 19 19 19 19 19 19 18 18 18 18 18 18 17 18 17 17 17 17 18 18 18 18 18 18 18 18 18 17 17 17 18 18 17
18 19 21 21 22 21 20 20 21 20 19 19 17 18 18 18 18 19 19 20 20 19 19 19 18 18 18 17 17 17 17 17 17 18 18 18 18 18 18 18 18 18 18 18 18 18 18 18 18
19 20 21 21 21 21 21 20 21 21 20 21 21 20 19 19 19 19 19 20 19 19 19 19 18 18 18 17 17 18 18 18 18 18 19 18 18 18 18 18 18 18 18 17 18 18 19 18 19
19 20 22 21 22 21 20 20 21 20 21 20 20 20 19 19 19 19 19 19 19 19 19 19 18 18 18 18 18 18 18 18 18 18 18 18 18 18 18 18 18 18 18 18 18 18 19 19 19
21 20 22 21 21 20 21 20 19 20 19 20 20 19 19 19 19 20 20 20 19 19 19 19 19 18 18 18 18 18 18 18 18 18 18 18 18 18 18 18 18 18 18 18 18 18 19 19 19
21 20 22 22 21 21 21 19 21 21 19 19 19 19 19 19 19 20 20 20 20 19 19 18 18 19 18 18 18 18 18 18 18 18 18 18 18 18 18 18 18 19 19 18 18 19 19 19 18
20 19 20 21 21 21 21 19 20 20 18 19 18 18 18 19 20 20 20 20 20 20 19 18 18 19 18 18 18 18 18 18 18 18 18 18 18 18 18 18 18 19 19 18 18 19 18 19 19
17 19 20 21 22 21 20 20 20 19 20 19 19 19 19 18 19 20 20 20 20 19 19 19 18 19 19 18 18 18 18 18 18 18 18 18 18 18 18 18 18 18 19 19 19 19 19 19 19
18 18 19 20 20 19 20 19 20 20 20 20 19 19 20 19 20 21 21 20 20 19 19 19 19 19 19 19 18 18 18 18 18 18 18 18 18 18 18 18 19 19 19 19 19 19 19 19 20
19 19 19 23 21 20 20 18 19 19 20 20 20 20 20 20 21 21 21 21 20 20 19 19 19 18 18 19 19 18 18 18 18 18 18 18 18 18 18 19 19 19 19 19 19 19 19 20 20
21 22 20 19 21 19 17 18 19 19 19 21 21 21 21 21 20 21 21 21 20 20 20 19 19 19 19 19 19 19 19 18 18 18 18 18 18 18 18 18 18 18 19 19 19 19 20 19 20
20 21 22 20 18 18 19 18 19 19 19 20 21 22 22 22 21 20 21 21 21 20 20 20 19 19 19 18 19 19 19 19 18 18 18 18 18 18 18 19 18 19 19 19 19 19 20 20 20
20 20 23 19 20 20 19 19 18 19 18 18 20 21 22 22 22 21 21 21 21 21 20 20 19 19 19 19 19 19 19 19 19 18 18 18 18 18 18 19 18 18 19 19 19 19 20 20 20
21 21 23 20 18 18 18 19 20 18 18 18 19 20 21 21 22 22 22 22 21 21 20 20 20 19 19 19 19 19 19 19 19 19 18 18 18 18 18 18 19 18 19 19 19 19 19 20 20
21 22 18 17 17 18 18 20 19 17 19 20 20 20 20 21 22 22 22 22 21 20 20 20 20 19 19 19 19 19 19 19 19 19 19 19 18 18 18 18 18 18 18 19 19 19 19 19 20
20 18 18 17 17 17 17 19 20 16 16 18 20 20 20 20 21 21 21 21 21 20 20 20 20 20 19 19 19 19 19 19 19 19 19 19 19 19 19 18 18 18 18 18 19 19 19 19 19
18 18 16 19 17 19 17 19 19 15 15 18 20 20 19 19 20 20 20 21 21 20 20 20 20 20 20 19 19 19 19 19 19 19 19 19 19 19 18 18 18 18 18 18 19 19 19 19 19
19 18 18 16 16 17 16 17 16 16 15 15 15 17 17 18 18 19 20 20 19 20 20 20 20 20 20 20 19 19 19 19 19 19 19 19 19 19 19 18 18 18 18 18 18 18 19 19 19
20 19 19 15 18 19 16 16 17 16 15 15 14 14 14 16 18 18 18 19 19 19 19 19 20 20 19 19 19 18 18 18 18 19 19 19 19 19 19 19 19 18 18 18 18 19 19 19 19
20 18 15 15 15 16 16 17 15 15 15 14 13 13 14 14 15 17 18 18 18 18 19 18 19 19 19 17 18 18 18 18 18 18 18 19 19 19 19 19 19 19 18 18 18 18 18 18 18
19 18 15 16 17 13 15 17 13 13 12 13 12 13 14 15 15 15 16 16 17 17 18 18 18 18 18 17 18 18 18 18 18 18 18 18 18 18 19 19 19 19 19 18 18 19 18 18 18
Height
1518 1519 1519 1519 1526 1528 1535 1535 1529 1530 1533 1534 1537 1539 1541 1541 1545 1556 1551 1556 1559 1561 1563 1565 1567 1567 1567 1568 1568 1568 1569 1570 1571 1571 1572 1573 1574 1575 1575 1576 1575 1576 1577 1578 1578 1580 1580 1580 1580
1518 1519 1520 1520 1530 1540 1540 1531 1530 1528 1530 1533 1537 1538 1541 1546 1546 1548 1553 1557 1560 1562 1564 1566 1568 1568 1569 1569 1569 1570 1570 1571 1572 1573 1573 1574 1575 1576 1577 1578 1579 1580 1582 1582 1583 1583 1584 1584 1584
1518 1520 1521 1521 1533 1541 1540 1532 1530 1530 1529 1533 1538 1540 1543 1547 1547 1550 1554 1558 1562 1564 1567 1568 1569 1570 1571 1571 1572 1572 1572 1573 1574 1575 1576 1577 1577 1578 1580 1582 1582 1584 1586 1586 1586 1586 1587 1587 1587
1518 1521 1522 1525 1532 1531 1531 1530 1531 1532 1534 1536 1536 1543 1547 1548 1550 1552 1556 1560 1563 1566 1568 1570 1572 1573 1573 1574 1574 1574 1575 1575 1576 1577 1578 1579 1580 1581 1582 1583 1586 1587 1588 1587 1589 1589 1589 1590 1589
1519 1520 1518 1525 1532 1529 1528 1531 1532 1533 1533 1536 1538 1546 1549 1552 1553 1555 1559 1563 1565 1568 1570 1573 1574 1575 1576 1576 1577 1578 1577 1577 1578 1580 1581 1582 1583 1583 1584 1586 1587 1589 1590 1591 1592 1593 1593 1593 1593
1520 1520 1522 1527 1528 1529 1531 1532 1533 1535 1534 1537 1541 1545 1553 1554 1556 1558 1562 1565 1568 1570 1572 1574 1576 1577 1578 1578 1579 1579 1579 1579 1581 1582 1584 1585 1585 1586 1587 1588 1590 1590 1592 1594 1595 1596 1596 1596 1595
1520 1520 1519 1521 1528 1531 1529 1532 1533 1533 1535 1539 1540 1547 1553 1555 1558 1561 1564 1567 1570 1572 1573 1575 1577 1579 1579 1580 1581 1581 1581 1582 1583 1585 1587 1588 1588 1590 1590 1591 1592 1593 1595 1596 1598 1599 1599 1599 1599
1519 1519 1518 1521 1527 1530 1528 1531 1531 1534 1537 1540 1542 1547 1553 1555 1559 1563 1566 1569 1571 1573 1575 1577 1578 1579 1581 1582 1583 1583 1583 1584 1585 1587 1589 1590 1591 1592 1593 1594 1595 1596 1598 1600 1601 1602 1602 1602 1602
1518 1522 1522 1520 1522 1525 1528 1528 1532 1535 1538 1540 1542 1542 1548 1554 1560 1563 1567 1570 1572 1574 1576 1578 1580 1581 1583 1583 1584 1584 1585 1586 1587 1589 1591 1593 1593 1596 1595 1597 1598 1599 1601 1603 1605 1605 1605 1606 1605
1519 1524 1518 1512 1515 1521 1526 1527 1531 1535 1539 1543 1543 1548 1552 1557 1561 1563 1566 1570 1573 1575 1577 1579 1581 1583 1584 1585 1586 1587 1588 1589 1590 1592 1594 1595 1596 1598 1599 1600 1601 1603 1605 1607 1608 1608 1608 1609 1610
1517 1519 1513 1513 1515 1520 1524 1529 1532 1535 1542 1540 1542 1548 1554 1559 1563 1565 1568 1571 1575 1577 1579 1581 1583 1585 1586 1587 1589 1590 1591 1592 1593 1595 1597 1599 1600 1601 1602 1603 1605 1607 1608 1610 1610 1611 1611 1611 1611
1517 1512 1512 1514 1518 1521 1525 1530 1533 1536 1539 1543 1544 1550 1555 1560 1563 1566 1569 1572 1576 1578 1580 1583 1585 1587 1589 1590 1592 1593 1594 1596 1597 1598 1600 1602 1603 1604 1606 1607 1608 1610 1611 1611 1612 1612 1612 1612 1612
1515 1512 1513 1516 1520 1525 1529 1530 1534 1538 1542 1546 1549 1554 1557 1562 1565 1568 1572 1574 1577 1580 1582 1584 1587 1589 1591 1592 1594 1595 1597 1599 1600 1601 1603 1605 1607 1608 1610 1611 1612 1613 1613 1614 1615 1615 1615 1614 1614
1513 1513 1516 1520 1522 1526 1528 1534 1536 1541 1544 1548 1551 1555 1559 1562 1565 1569 1572 1574 1577 1581 1584 1586 1588 1591 1593 1595 1596 1598 1600 1602 1604 1605 1606 1608 1609 1610 1612 1613 1614 1615 1616 1616 1617 1617 1617 1616 1616
1516 1518 1518 1522 1525 1526 1529 1538 1536 1539 1544 1548 1552 1555 1560 1563 1566 1569 1573 1576 1578 1582 1585 1587 1589 1592 1595 1597 1598 1600 1602 1604 1606 1607 1609 1610 1611 1612 1613 1614 1615 1616 1617 1618 1618 1618 1618 1619 1619
1519 1521 1530 1523 1523 1527 1529 1539 1533 1535 1542 1547 1552 1556 1560 1563 1567 1570 1574 1578 1580 1583 1586 1588 1590 1593 1595 1598 1600 1601 1603 1605 1607 1609 1610 1611 1613 1614 1614 1615 1616 1618 1619 1619 1620 1620 1620 1620 1620
1525 1534 1529 1526 1523 1526 1531 1534 1532 1538 1542 1547 1551 1555 1559 1564 1567 1571 1574 1578 1581 1583 1587 1589 1591 1593 1595 1598 1600 1602 1604 1605 1607 1609 1611 1612 1613 1614 1615 1617 1618 1619 1620 1621 1621 1622 1622 1622 1622
1535 1533 1528 1525 1523 1527 1529 1534 1534 1539 1542 1545 1550 1554 1558 1561 1563 1568 1573 1577 1581 1584 1587 1589 1592 1594 1595 1598 1600 1602 1604 1606 1607 1609 1611 1612 1614 1615 1616 1617 1618 1619 1620 1621 1622 1623 1623 1623 1623
1520 1524 1531 1514 1517 1523 1528 1536 1535 1537 1541 1544 1548 1553 1555 1556 1562 1566 1571 1576 1580 1584 1586 1589 1591 1593 1595 1597 1599 1602 1604 1606 1607 1609 1610 1612 1613 1614 1616 1617 1618 1619 1620 1621 1622 1623 1624 1624 1624
1516 1520 1525 1522 1517 1528 1535 1538 1534 1537 1539 1542 1544 1548 1551 1555 1560 1564 1570 1574 1578 1581 1585 1588 1591 1593 1595 1598 1600 1602 1604 1606 1607 1608 1610 1611 1613 1614 1616 1617 1619 1620 1621 1622 1623 1624 1625 1625 1624
1519 1522 1521 1524 1528 1530 1533 1542 1539 1537 1538 1541 1543 1545 1547 1551 1556 1561 1566 1571 1576 1579 1582 1585 1589 1592 1595 1597 1599 1601 1603 1605 1607 1608 1610 1611 1612 1613 1615 1616 1618 1620 1621 1622 1623 1625 1625 1625 1626
1525 1513 1512 1521 1527 1541 1532 1554 1539 1535 1537 1538 1540 1541 1543 1547 1553 1557 1563 1568 1572 1577 1582 1585 1588 1591 1594 1596 1598 1600 1602 1604 1606 1608 1609 1610 1611 1612 1614 1617 1618 1619 1621 1622 1624 1625 1626 1626 1627
1515 1510 1511 1520 1530 1534 1541 1545 1533 1533 1537 1532 1533 1536 1541 1544 1549 1553 1559 1565 1570 1576 1579 1583 1587 1590 1593 1595 1598 1600 1601 1603 1605 1607 1609 1610 1611 1612 1614 1616 1618 1620 1621 1622 1624 1625 1626 1627 1628
1505 1511 1520 1528 1536 1550 1536 1538 1537 1538 1527 1526 1530 1533 1538 1542 1546 1551 1557 1564 1569 1574 1579 1582 1585 1587 1591 1594 1596 1598 1600 1602 1604 1606 1607 1609 1610 1612 1614 1615 1617 1619 1621 1622 1624 1625 1626 1628 1628
1507 1522 1543 1554 1553 1558 1537 1540 1527 1530 1527 1523 1524 1531 1536 1541 1544 1549 1554 1560 1567 1571 1575 1579 1583 1585 1589 1592 1594 1597 1600 1601 1603 1605 1606 1608 1609 1611 1613 1615 1616 1618 1620 1622 1623 1624 1626 1627 1628
1512 1517 1542 1550 1561 1545 1535 1541 1528 1528 1525 1516 1520 1526 1533 1538 1541 1547 1552 1557 1563 1568 1573 1576 1580 1583 1587 1589 1592 1596 1598 1601 1602 1604 1605 1607 1608 1610 1611 1613 1615 1617 1619 1620 1621 1623 1624 1625 1627
1507 1518 1508 1535 1541 1543 1545 1532 1527 1527 1526 1523 1524 1526 1532 1536 1542 1545 1550 1556 1560 1565 1569 1574 1578 1581 1584 1587 1591 1594 1597 1599 1601 1603 1605 1606 1608 1609 1610 1612 1613 1615 1616 1618 1619 1621 1622 1623 1625
1495 1498 1522 1532 1546 1547 1546 1541 1533 1527 1529 1529 1530 1531 1533 1536 1539 1544 1549 1553 1558 1563 1567 1571 1575 1578 1583 1586 1589 1593 1595 1598 1599 1601 1603 1604 1605 1607 1609 1610 1612 1613 1614 1616 1617 1618 1620 1621 1622
1501 1506 1516 1522 1534 1549 1556 1540 1523 1524 1525 1529 1532 1532 1534 1536 1540 1542 1545 1550 1556 1562 1566 1568 1571 1575 1579 1577 1587 1590 1593 1595 1597 1598 1600 1602 1603 1605 1606 1608 1609 1610 1611 1613 1614 1615 1617 1618 1619
1496 1505 1513 1526 1533 1542 1540 1533 1523 1523 1526 1528 1532 1533 1536 1537 1540 1542 1544 1548 1552 1558 1562 1565 1569 1573 1575 1579 1582 1586 1590 1592 1593 1595 1597 1599 1601 1602 1604 1605 1606 1607 1609 1609 1610 1612 1615 1616 1616
Wind_Speed
7 5 2 3 3 3 2 3 1 8 6 7 20 6 4 5 1 3 24 18 19 18 17 14 10 9 9 9 9 8 9 11 11 11 11 12 12 12 13 14 15 15 17 16 17 19 18 19 18
9 6 2 2 4 2 2 4 3 2 12 22 9 14 4 3 4 20 23 22 18 18 17 13 11 10 9 9 8 10 10 9 10 11 12 13 13 13 13 14 14 15 17 18 18 18 20 20 17
9 4 1 3 3 3 1 4 3 4 23 27 5 8 4 2 10 26 24 23 19 18 15 13 11 9 9 9 8 9 9 10 10 11 12 13 14 14 14 14 15 16 16 17 17 16 14 14 15
5 2 0 3 4 0 3 6 1 1 13 19 13 8 6 1 28 20 26 22 20 17 15 12 11 10 9 9 8 8 10 11 11 11 13 13 14 15 14 14 15 15 15 16 15 14 13 15 14
5 1 2 4 5 4 2 2 4 1 5 11 4 5 8 13 11 29 24 21 18 17 15 13 11 10 10 9 9 10 10 11 11 13 13 14 14 14 15 14 13 14 14 15 14 14 14 16 15
1 1 2 3 6 5 1 4 5 3 6 11 11 11 5 7 24 27 23 20 16 15 14 13 11 10 10 9 10 11 11 12 12 14 14 14 14 14 14 14 13 13 14 14 14 14 15 14 15
1 1 1 5 9 5 5 9 4 8 11 7 18 6 12 21 26 25 22 18 16 14 13 13 11 12 9 9 10 10 9 11 12 13 14 13 13 15 14 13 12 14 15 14 14 14 15 15 17
2 0 0 4 10 5 8 6 11 14 5 18 21 8 11 29 26 25 21 18 16 13 12 11 10 10 10 11 10 9 10 13 13 14 14 13 14 13 13 12 11 14 13 12 12 12 13 14 15
2 2 1 4 8 7 11 7 10 10 20 5 3 24 29 30 27 25 22 19 16 14 12 11 10 10 12 13 13 13 14 16 15 14 13 15 14 13 14 13 12 14 13 12 12 12 11 12 13
2 2 2 3 6 11 12 16 11 10 11 15 24 27 31 30 28 26 24 21 17 14 13 11 11 13 15 17 16 17 16 16 17 16 17 15 15 14 15 14 15 15 14 12 11 11 10 10 12
2 3 1 6 15 21 10 8 7 20 4 25 30 35 31 30 27 25 23 19 15 14 14 12 14 15 16 13 14 17 16 17 18 18 17 16 17 17 17 17 16 14 13 11 9 8 9 6 10
2 4 1 13 23 18 16 12 14 10 8 34 38 36 34 30 25 22 22 20 19 17 15 15 17 18 16 15 15 17 16 17 16 17 19 19 20 19 18 16 15 13 10 7 7 6 9 5 8
3 0 13 18 24 18 22 12 11 9 22 33 35 33 32 28 23 18 21 22 20 19 18 18 19 17 16 17 17 17 16 15 16 17 19 17 15 13 12 11 10 9 7 7 7 7 9 10 9
3 6 19 15 19 14 12 10 18 17 19 31 33 33 31 28 25 22 25 24 22 22 21 21 20 17 15 15 14 15 15 15 13 15 15 11 9 9 9 10 10 9 7 7 5 6 6 8 7
10 5 7 12 13 8 19 5 5 14 27 31 31 33 31 28 26 25 26 23 21 23 20 20 19 18 15 14 12 12 13 11 9 9 8 7 9 10 9 9 10 11 6 5 5 4 5 6 7
5 4 5 6 11 4 4 8 7 21 34 29 29 29 30 29 28 25 24 24 21 21 21 20 18 16 14 12 10 11 11 7 7 9 6 7 8 7 8 9 8 8 5 4 4 5 6 6 8
7 4 3 5 7 5 3 3 9 23 31 27 28 29 27 26 27 26 23 25 22 20 20 19 17 16 13 12 11 12 10 7 6 5 5 5 6 6 7 6 5 6 5 3 4 3 4 3 5
4 2 3 7 7 2 4 2 12 17 25 27 26 28 30 28 29 27 25 24 24 21 20 19 17 17 15 15 13 11 10 6 5 4 3 5 6 4 5 6 6 6 5 5 5 4 3 2 3
5 6 4 1 11 11 14 3 8 10 13 25 26 27 32 36 30 28 28 25 24 23 21 21 19 19 18 16 14 14 10 8 6 5 5 4 6 6 5 7 7 3 5 6 4 2 3 2 5
3 2 2 4 10 5 2 4 8 14 6 21 24 28 34 34 32 31 31 29 28 25 23 21 20 19 15 12 11 11 9 9 8 6 6 7 7 8 5 7 6 4 7 3 2 3 2 4 6
1 3 3 5 4 4 8 4 5 4 6 12 16 30 34 33 34 34 34 33 31 28 25 22 20 18 16 13 15 14 11 10 9 9 7 8 8 9 7 6 8 5 7 5 4 3 1 4 8
4 6 3 11 5 4 2 4 5 8 9 7 19 20 34 34 36 36 37 36 34 31 26 23 22 19 17 15 16 13 11 9 7 7 6 7 7 9 11 10 7 4 8 7 7 3 1 3 7
7 5 5 4 4 4 4 2 2 11 12 16 20 24 26 36 37 37 38 37 37 33 30 25 23 21 18 15 17 13 10 9 7 7 7 7 8 8 12 9 9 7 5 5 6 5 2 1 4
5 4 6 5 3 1 6 5 3 6 12 15 19 24 26 34 36 37 40 34 37 36 29 28 26 23 20 17 15 16 13 10 9 4 8 8 8 7 12 9 12 7 5 6 7 6 4 2 1
4 6 2 3 2 5 4 5 3 4 8 12 19 18 23 30 37 39 40 39 33 37 31 30 28 26 24 20 18 17 17 11 11 7 5 9 8 7 11 8 11 11 7 8 7 8 7 5 3
6 8 5 5 5 4 3 5 3 3 10 5 19 23 22 27 34 36 41 43 33 29 36 32 29 29 27 23 20 17 19 15 11 9 6 3 7 7 9 9 8 10 9 9 11 11 11 9 8
4 4 6 7 3 3 2 3 2 4 8 14 15 22 19 17 24 33 37 43 41 29 28 33 31 30 29 24 21 19 18 18 14 12 10 9 9 8 10 11 8 10 9 10 12 12 12 12 13
5 5 4 3 4 2 3 4 4 4 5 6 9 11 11 15 23 29 33 37 45 37 27 33 35 33 27 26 21 19 17 18 16 12 11 9 12 12 14 12 12 11 10 9 11 15 16 13 14
2 1 6 6 4 5 4 6 3 5 8 8 9 9 9 12 14 21 27 30 36 38 31 33 32 35 30 23 23 18 18 19 19 16 12 11 9 12 15 11 12 13 12 13 13 13 13 16 15
2 3 4 5 4 1 3 4 3 4 9 13 11 11 11 11 10 13 17 19 25 31 32 34 29 27 23 23 20 20 20 19 21 19 14 13 12 11 10 12 12 10 12 11 12 12 13 12 11
Wind_Direction
140 130 96 19 52 55 37 16 255 105 137 155 159 133 151 81 117 155 141 147 149 143 142 133 124 120 119 117 112 111 116 129 122 125 127 123 118 114 109 109 103 106 105 100 105 110 110 107 103
138 121 100 55 76 17 38 308 75 69 150 154 144 133 61 75 91 139 140 147 146 143 141 131 127 123 113 109 113 111 109 114 128 123 122 122 117 112 109 107 103 107 109 107 108 109 106 99 93
148 127 103 108 89 158 290 301 30 30 152 154 158 102 65 71 133 137 145 148 145 140 139 136 133 128 120 117 115 119 115 113 120 126 118 121 117 115 114 111 111 117 118 113 108 110 109 99 94
151 163 331 86 175 112 192 191 104 337 133 155 132 74 60 174 140 144 146 149 145 143 140 133 131 129 127 119 120 124 123 116 120 120 119 120 119 123 120 119 115 123 119 110 96 89 98 87 87
151 274 214 147 183 131 32 24 127 10 120 147 110 84 91 142 149 146 146 151 149 145 142 135 133 129 125 127 126 122 119 119 116 119 120 120 122 121 119 118 115 121 116 107 94 86 94 86 79
188 267 264 113 151 116 165 187 145 218 123 117 104 98 103 156 154 147 148 151 150 142 140 133 132 124 118 122 121 117 118 118 116 121 125 123 121 122 116 114 112 121 121 109 96 92 89 86 75
250 234 287 106 127 122 180 159 226 143 113 110 134 107 138 149 153 148 150 151 146 140 139 133 135 121 114 126 118 113 121 124 117 119 126 122 121 119 114 110 113 121 124 106 105 97 88 82 74
253 51 181 108 162 129 160 176 145 124 82 132 126 144 156 158 156 154 155 153 145 136 137 137 133 129 130 116 116 118 116 128 120 121 123 123 121 121 122 119 119 124 124 114 111 99 93 82 70
267 317 312 132 169 131 152 145 136 118 131 90 216 154 157 157 156 158 159 157 150 141 138 142 136 131 124 113 109 112 122 119 123 123 126 125 122 122 125 130 126 131 130 120 108 101 91 76 65
163 173 253 143 138 138 153 135 133 133 132 109 111 142 153 154 158 160 163 161 157 148 146 147 138 135 127 115 103 103 111 118 123 123 124 125 123 123 123 122 123 131 126 113 107 97 84 76 71
186 225 316 137 143 136 117 115 127 135 108 152 143 152 156 161 164 168 168 161 153 153 152 146 141 134 130 122 120 112 113 113 117 118 119 117 115 115 114 114 119 124 118 110 104 89 74 59 62
263 262 322 143 143 133 139 126 139 133 166 157 147 151 159 165 167 171 167 159 156 156 151 142 140 135 132 129 123 118 115 114 116 117 117 115 111 108 113 117 119 119 112 111 88 77 66 42 84
227 270 120 133 142 135 132 153 146 138 151 162 152 159 167 169 169 169 163 160 158 159 152 138 138 136 134 129 123 120 117 117 119 119 121 113 109 110 124 130 134 130 119 95 84 79 78 65 95
158 91 133 127 140 148 143 134 138 204 165 166 163 170 175 174 171 163 164 162 160 159 152 142 137 136 138 141 137 127 121 114 118 126 128 124 112 127 121 134 158 151 120 108 100 91 77 72 97
146 83 108 154 167 148 141 123 185 185 165 163 171 178 184 184 182 178 172 167 160 164 161 152 148 143 138 144 149 147 133 119 116 148 138 129 126 115 123 132 139 155 131 108 71 83 69 80 86
130 79 136 195 164 116 160 204 214 171 168 167 171 178 188 193 192 189 186 179 171 172 173 166 160 154 158 154 158 157 146 133 117 130 147 139 129 125 131 128 134 154 138 123 92 75 46 54 58
20 156 150 160 158 131 189 131 173 160 171 173 171 179 187 191 201 200 196 190 184 181 180 179 174 166 164 168 156 156 150 131 137 153 145 160 168 152 141 139 132 143 148 114 102 93 62 51 22
173 125 277 148 195 209 220 242 152 161 172 178 179 180 189 193 205 201 202 198 194 191 189 190 180 178 168 171 168 166 176 169 178 172 163 185 181 175 166 153 158 144 143 122 122 101 86 83 19
146 124 217 167 176 160 212 144 176 190 172 179 186 184 195 203 206 209 205 202 197 197 197 195 191 181 179 181 183 187 186 190 196 195 212 227 212 207 179 166 163 141 162 136 121 107 82 50 11
105 103 97 11 165 115 2 265 220 184 188 188 184 185 199 205 208 209 210 205 201 199 197 199 194 190 192 195 192 185 192 196 204 216 208 212 212 191 204 193 196 163 161 163 137 130 51 21 12
123 169 181 149 108 26 113 313 235 213 207 207 197 197 203 206 205 207 206 206 199 202 198 199 196 200 202 204 202 200 207 201 214 212 224 219 209 208 206 190 192 206 206 191 186 154 82 17 2
161 206 161 137 150 160 154 210 189 203 208 213 208 195 201 202 207 207 205 206 203 205 201 200 200 201 205 205 202 209 206 204 206 209 211 207 213 215 206 191 191 219 217 215 195 187 230 14 6
209 166 177 167 104 98 209 123 242 172 212 221 220 210 202 199 202 208 204 209 206 206 202 200 203 203 207 203 205 208 205 197 195 209 211 228 220 217 202 200 199 193 194 198 211 212 237 14 29
161 136 51 51 100 45 217 157 240 185 229 224 224 213 206 201 203 208 203 205 206 208 206 207 204 206 207 211 210 212 213 213 205 205 218 218 223 219 196 211 200 208 221 216 221 212 228 246 46
100 72 48 39 78 213 198 143 241 293 312 244 211 212 211 203 200 202 200 195 209 211 204 211 209 209 212 216 218 219 215 226 211 208 214 218 230 236 203 201 210 214 225 228 219 214 229 238 254
179 151 150 159 163 214 105 211 261 351 343 91 185 183 186 192 198 201 203 199 201 212 218 215 213 214 215 220 221 228 225 226 227 214 210 200 217 240 221 220 210 209 234 240 230 233 233 242 254
177 153 186 100 14 93 252 278 305 82 41 67 92 139 154 171 189 198 204 208 202 210 223 223 222 220 219 220 226 231 231 230 234 238 244 244 230 227 225 223 228 232 241 242 233 236 239 244 249
150 163 88 12 139 174 306 285 228 193 142 97 85 103 126 152 179 194 206 210 209 212 222 225 228 228 227 221 226 237 240 236 237 243 248 253 238 241 232 237 238 243 231 248 251 244 243 249 250
88 75 52 109 115 150 162 254 150 188 161 137 117 121 138 161 173 191 204 211 219 220 226 233 231 229 227 224 229 238 245 242 241 246 254 261 242 250 241 242 242 243 244 253 262 245 243 251 254
70 105 112 123 209 72 143 265 24 125 140 146 153 151 160 172 185 200 206 205 214 214 221 229 232 229 233 228 223 235 245 243 238 243 248 251 256 256 254 250 252 252 245 253 252 235 246 249 248